Temp
4 3 3 3 4 3 3 3 2 2 3 3 3 3 3 3 3 2 3 2 2 1 1 1 2 1 2 2 2 2 2 3 3 3 3 3 3 3 3 3 3 3
3 3 3 3 3 3 3 3 3 2 3 2 2 3 3 2 2 2 2 2 2 2 1 1 2 1 1 2 2 2 2 2 2 2 3 3 3 3 3 3 3 3
3 3 3 3 3 3 3 3 3 2 2 2 2 2 2 2 2 2 2 2 2 2 2 2 2 2 2 2 2 2 2 2 2 2 3 3 3 3 2 2 2 3
3 3 3 3 3 3 3 3 3 2 2 2 2 2 2 2 2 2 2 2 2 2 2 2 2 2 2 2 2 2 2 2 2 3 3 3 2 2 2 2 2 2
2 2 2 2 2 3 3 3 3 2 2 2 2 2 2 2 2 2 2 2 2 2 2 2 1 1 1 1 1 2 2 2 3 3 3 2 2 2 2 2 2 2
2 2 2 2 2 2 2 2 3 3 2 2 2 2 2 2 2 2 2 2 2 2 2 2 1 1 1 1 1 1 2 2 2 3 3 2 2 2 2 2 2 3
2 2 2 2 2 2 2 2 2 3 2 2 2 2 2 2 2 2 2 2 2 2 2 2 1 1 1 1 1 1 1 1 2 2 2 2 2 2 2 3 3 3
1 1 1 2 2 2 2 2 2 2 2 2 2 2 2 2 2 2 2 2 2 2 2 2 1 1 1 1 1 1 1 1 1 2 2 2 2 2 2 3 3 3
1 1 1 1 1 1 2 2 2 2 2 2 2 2 2 2 2 2 2 2 2 2 2 2 1 1 1 1 1 1 1 1 0 1 2 2 2 2 1 2 3 3
1 1 1 1 1 1 1 2 2 2 2 2 2 2 2 2 2 2 2 2 2 2 2 2 1 1 0 0 1 1 1 1 0 0 1 2 2 2 1 2 2 2
1 1 1 0 0 0 1 1 1 1 2 2 2 2 2 2 2 2 2 2 2 2 2 2 2 1 1 1 1 1 1 1 0 1 1 2 2 1 1 1 1 1
0 0 0 0 0 0 0 1 1 1 1 1 2 2 2 2 2 2 2 2 2 3 3 3 2 2 1 1 1 1 1 1 1 1 1 2 2 1 1 1 1 1
0 -0 -0 -0 -0 -0 0 0 0 0 1 1 1 1 2 2 2 2 2 2 2 2 3 3 3 3 2 2 2 2 2 2 2 2 2 2 2 1 1 1 2 2
-0 -0 -0 -0 -0 -0 -0 -0 -0 0 0 0 1 1 1 1 1 2 2 2 2 2 2 2 3 3 3 3 2 2 2 2 2 2 2 2 2 2 1 1 2 2
-0 -0 -0 -0 -0 -0 -0 -0 -0 0 0 0 0 0 0 1 1 1 2 2 2 2 2 2 3 3 3 3 3 3 2 2 2 2 2 1 2 2 2 1 1 2
-0 -0 -0 -0 -0 -0 -0 -0 -0 -0 0 0 0 0 0 0 1 1 1 1 1 2 2 2 3 3 3 3 3 3 3 2 2 2 2 1 1 1 1 1 1 1
-1 -1 -0 -0 -0 -0 -0 -0 -0 -0 -0 -0 -0 0 0 0 0 1 1 1 1 2 2 2 2 3 3 3 3 3 3 3 3 2 2 2 1 1 1 1 0 1
-1 -1 -0 -0 -0 -0 -0 -1 -1 -0 -0 -0 -0 -0 -0 0 0 0 1 1 1 1 1 2 2 2 2 2 3 3 3 3 3 3 2 2 2 1 1 1 1 1
-1 -1 -1 -1 -1 -0 -0 -1 -1 -1 -1 -0 -1 -1 -0 -0 0 0 0 0 1 1 1 1 1 2 2 2 2 3 3 3 3 3 3 2 2 2 1 1 1 1
-1 -1 -1 -1 -0 -0 -1 -1 -1 -1 -1 -1 -1 -1 -1 -1 -0 -0 -0 0 0 0 1 1 1 1 1 1 2 2 2 3 3 3 3 3 3 2 2 1 1 1
-1 -1 -1 -1 -0 -0 -1 -1 -1 -1 -1 -1 -1 -1 -1 -1 -1 -1 -0 -0 -0 0 0 0 1 1 1 1 1 2 2 2 2 2 3 3 3 2 2 2 2 2
-1 -0 -0 -0 -0 -0 -1 -1 -1 -1 -1 -1 -0 -0 -1 -1 -1 -1 -1 -1 -0 -0 -0 0 0 1 1 1 1 1 2 2 2 2 2 2 2 2 2 2 2 2
-1 -0 -0 -0 -0 -0 -1 -1 -1 -1 -1 -1 -0 -0 -0 -1 -1 -1 -1 -1 -1 -0 -0 -0 0 0 0 1 1 1 1 1 2 2 2 2 2 2 2 2 2 2
-1 -1 -1 -1 -1 -1 -1 -1 -1 -1 -1 -1 -0 -0 -0 -1 -0 -0 -1 -1 -1 -1 -0 -0 -0 -0 0 0 0 1 1 1 1 2 2 2 2 2 2 2 2 2
-1 -1 -1 -1 -1 -1 -1 -0 -1 -1 -1 -1 -0 -0 -0 -0 -0 -0 -0 -0 -0 -1 -1 -0 -0 -0 -0 -0 0 0 0 1 1 1 1 1 1 1 1 2 2 2
-1 -1 -1 -1 -1 -1 -1 -1 -0 -0 -0 -0 -0 -0 -0 -0 -0 -0 -0 -0 -0 -0 -0 -0 -0 -0 -0 -0 -0 -0 0 0 0 1 1 1 1 1 1 1 2 2
Height
3090 3089 3089 3089 3089 3090 3091 3093 3094 3095 3097 3098 3099 3100 3101 3102 3104 3105 3106 3107 3108 3110 3112 3114 3116 3118 3121 3124 3127 3129 3132 3135 3137 3139 3140 3142 3145 3148 3150 3152 3154 3157
3088 3088 3088 3088 3088 3088 3089 3091 3093 3094 3095 3097 3098 3099 3100 3101 3102 3103 3105 3106 3107 3108 3110 3112 3113 3115 3118 3121 3124 3127 3130 3133 3135 3137 3139 3141 3143 3145 3147 3150 3153 3154
3087 3087 3086 3086 3086 3087 3088 3089 3091 3093 3094 3095 3096 3098 3099 3100 3100 3102 3103 3104 3105 3106 3108 3109 3111 3112 3115 3118 3121 3124 3127 3130 3132 3134 3136 3139 3140 3142 3144 3148 3151 3151
3085 3085 3085 3085 3085 3086 3086 3087 3089 3091 3093 3094 3095 3096 3097 3098 3099 3100 3101 3101 3103 3105 3106 3107 3109 3111 3112 3115 3118 3121 3124 3126 3129 3131 3134 3136 3138 3140 3143 3145 3148 3150
3084 3084 3084 3084 3084 3084 3085 3086 3087 3089 3091 3092 3093 3094 3095 3096 3097 3098 3098 3099 3100 3102 3103 3104 3106 3108 3109 3111 3114 3117 3120 3123 3125 3128 3131 3134 3136 3138 3141 3143 3145 3149
3083 3083 3083 3083 3083 3083 3084 3084 3085 3087 3089 3090 3091 3092 3093 3094 3095 3096 3096 3097 3098 3099 3100 3102 3103 3105 3106 3108 3111 3114 3117 3120 3122 3125 3128 3131 3134 3136 3138 3140 3143 3145
3082 3082 3082 3082 3082 3082 3082 3083 3084 3085 3086 3088 3089 3090 3091 3092 3093 3094 3095 3095 3096 3097 3098 3099 3100 3101 3103 3104 3107 3110 3114 3117 3119 3122 3125 3129 3132 3134 3135 3138 3140 3142
3081 3081 3081 3081 3081 3081 3081 3082 3082 3083 3084 3085 3086 3088 3089 3090 3091 3092 3093 3094 3094 3095 3096 3096 3097 3098 3099 3101 3103 3106 3109 3113 3116 3118 3122 3126 3128 3130 3132 3134 3136 3139
3080 3080 3080 3080 3080 3080 3080 3080 3080 3081 3082 3082 3084 3085 3086 3087 3088 3090 3091 3092 3093 3093 3094 3094 3095 3095 3097 3098 3100 3103 3105 3108 3111 3115 3118 3122 3124 3127 3129 3129 3131 3136
3079 3079 3079 3079 3079 3079 3079 3079 3079 3079 3080 3080 3081 3082 3084 3085 3086 3087 3088 3090 3091 3091 3092 3093 3093 3093 3094 3095 3097 3099 3101 3104 3107 3110 3115 3118 3121 3124 3126 3127 3129 3132
3078 3078 3078 3078 3078 3078 3077 3078 3078 3078 3078 3078 3079 3080 3081 3082 3083 3084 3086 3087 3089 3089 3090 3091 3092 3092 3092 3093 3094 3096 3098 3101 3103 3107 3111 3115 3118 3120 3123 3124 3126 3128
3077 3077 3077 3077 3077 3077 3077 3077 3077 3076 3076 3076 3077 3078 3079 3080 3081 3082 3083 3085 3086 3087 3088 3089 3090 3090 3091 3091 3092 3094 3096 3098 3101 3104 3107 3110 3113 3117 3119 3121 3123 3124
3076 3077 3077 3077 3076 3076 3076 3076 3076 3075 3075 3075 3076 3076 3077 3078 3079 3080 3081 3082 3084 3085 3086 3087 3087 3088 3089 3091 3092 3093 3095 3097 3099 3101 3103 3105 3109 3112 3115 3117 3119 3120
3075 3076 3076 3076 3075 3075 3075 3075 3075 3075 3075 3075 3075 3075 3076 3076 3077 3078 3079 3080 3081 3083 3084 3084 3085 3086 3088 3090 3091 3093 3094 3095 3097 3098 3099 3100 3104 3107 3110 3112 3114 3116
3075 3075 3075 3075 3075 3075 3075 3075 3075 3075 3074 3074 3075 3075 3075 3075 3075 3076 3077 3078 3079 3080 3081 3082 3083 3085 3087 3088 3090 3091 3092 3093 3095 3095 3095 3096 3098 3101 3105 3107 3109 3112
3074 3075 3075 3075 3074 3074 3074 3074 3074 3074 3074 3074 3074 3074 3074 3074 3074 3075 3075 3076 3076 3077 3079 3080 3082 3083 3084 3085 3087 3089 3090 3091 3092 3093 3093 3093 3095 3098 3101 3104 3106 3109
3074 3074 3074 3074 3074 3074 3074 3074 3074 3074 3074 3073 3073 3073 3073 3073 3073 3073 3073 3074 3075 3076 3077 3079 3080 3081 3082 3083 3084 3086 3088 3089 3090 3090 3091 3092 3094 3096 3098 3102 3104 3107
3073 3074 3074 3074 3074 3074 3074 3074 3074 3074 3074 3073 3073 3072 3072 3072 3072 3072 3072 3073 3074 3075 3076 3076 3077 3079 3080 3081 3082 3083 3085 3087 3087 3088 3089 3091 3092 3094 3096 3099 3101 3103
3073 3073 3074 3074 3074 3074 3074 3074 3074 3074 3073 3073 3072 3072 3072 3071 3071 3071 3071 3072 3073 3073 3074 3075 3076 3077 3078 3079 3080 3081 3082 3084 3085 3086 3087 3089 3090 3092 3094 3096 3098 3100
3073 3073 3073 3073 3073 3073 3074 3074 3073 3073 3073 3073 3072 3072 3071 3071 3071 3071 3071 3071 3072 3072 3073 3073 3074 3075 3076 3077 3078 3079 3080 3081 3082 3084 3085 3087 3088 3090 3092 3094 3095 3097
3072 3073 3073 3073 3073 3073 3073 3073 3073 3073 3073 3073 3072 3072 3071 3071 3070 3070 3070 3070 3071 3071 3071 3072 3073 3074 3075 3075 3076 3077 3078 3079 3081 3082 3083 3085 3086 3087 3089 3091 3092 3094
3072 3072 3072 3072 3073 3073 3073 3073 3073 3073 3073 3073 3072 3072 3072 3071 3071 3070 3070 3070 3070 3070 3070 3071 3072 3072 3073 3074 3074 3075 3076 3077 3079 3080 3081 3082 3083 3085 3086 3088 3089 3090
3071 3072 3072 3072 3072 3072 3073 3073 3073 3073 3073 3072 3072 3072 3072 3071 3071 3071 3070 3070 3070 3070 3070 3070 3071 3071 3072 3072 3073 3074 3074 3075 3076 3077 3079 3080 3082 3083 3084 3085 3086 3087
3071 3071 3071 3071 3072 3072 3072 3072 3072 3072 3072 3072 3072 3072 3072 3071 3071 3071 3071 3070 3070 3070 3070 3070 3070 3070 3071 3071 3072 3072 3073 3074 3075 3076 3078 3079 3080 3081 3082 3082 3083 3084
3071 3071 3071 3071 3071 3071 3071 3071 3072 3072 3071 3071 3071 3071 3072 3071 3071 3071 3071 3070 3070 3070 3070 3070 3070 3070 3070 3071 3071 3071 3072 3072 3073 3074 3076 3077 3077 3079 3079 3079 3080 3081
3071 3070 3070 3070 3070 3070 3070 3071 3071 3071 3071 3071 3071 3071 3071 3071 3070 3070 3070 3070 3070 3070 3070 3070 3070 3070 3070 3070 3070 3071 3071 3071 3072 3073 3074 3074 3075 3077 3077 3076 3077 3079
Wind_Speed
12 12 12 13 16 18 19 19 18 16 14 13 13 14 15 18 21 20 18 18 20 23 31 34 33 35 38 36 36 36 36 37 35 36 36 35 34 31 28 28 28 29
12 11 12 13 14 17 19 20 19 18 16 14 14 14 14 16 19 19 18 17 17 19 27 33 33 33 35 35 37 38 38 37 35 36 35 35 37 29 20 23 29 27
11 11 12 12 13 16 19 20 21 19 17 15 14 14 15 15 16 18 18 18 18 18 20 28 33 35 37 37 37 38 39 38 37 37 36 36 40 33 18 19 27 25
11 11 11 11 12 14 17 20 21 21 19 17 15 14 14 14 15 17 19 20 21 20 19 23 29 34 39 41 40 38 38 39 39 39 38 37 40 37 26 21 26 25
11 11 11 11 11 12 14 18 21 22 21 19 17 15 14 14 14 15 18 20 21 21 21 23 26 30 36 40 43 41 37 38 41 40 39 37 36 36 32 27 26 25
11 10 10 11 10 10 12 16 19 21 22 21 19 18 16 15 15 14 15 16 19 20 21 23 24 26 30 34 39 43 40 38 40 42 39 34 30 28 30 31 29 25
11 9 9 10 10 10 11 13 16 19 20 21 20 20 19 17 16 14 13 13 15 17 18 20 22 24 26 29 35 41 44 40 39 42 40 36 30 22 20 26 28 26
11 10 9 9 9 9 10 11 14 16 18 19 20 20 20 19 18 16 14 13 13 14 15 16 18 21 23 26 30 35 42 45 42 42 40 39 37 25 17 21 21 19
10 10 9 9 9 9 10 11 13 14 16 17 18 19 20 20 19 18 16 14 12 11 13 14 14 17 20 24 28 29 34 43 48 47 41 39 40 31 21 22 20 16
10 10 9 8 8 9 10 11 12 14 15 16 16 17 18 19 19 20 18 16 14 12 12 12 11 12 14 19 24 26 29 35 44 50 44 38 38 35 27 24 21 18
9 8 8 7 8 9 10 10 11 13 14 16 16 16 16 17 18 19 19 17 16 14 13 13 12 11 11 13 16 20 23 27 35 44 45 39 37 38 34 28 23 19
8 7 7 7 8 9 9 9 10 12 14 15 16 16 16 16 17 17 17 17 18 17 16 15 14 13 13 12 12 14 17 21 26 35 42 42 38 39 40 36 30 22
8 6 6 6 8 9 9 9 10 12 13 13 14 14 14 15 15 16 16 16 17 18 18 18 17 16 16 15 13 12 13 15 19 27 38 43 42 41 42 42 39 30
7 6 6 7 8 9 9 9 9 10 11 12 11 12 13 13 14 14 15 15 16 17 19 20 20 19 17 16 14 13 12 12 14 19 28 40 46 47 44 44 45 40
7 6 6 7 7 8 7 7 7 8 9 10 10 11 12 12 13 13 13 14 15 17 19 20 20 19 17 17 16 13 13 13 12 12 15 24 36 43 44 43 45 43
6 5 6 6 6 6 5 6 6 7 7 8 9 10 11 12 12 12 12 14 15 16 18 18 18 17 17 18 17 15 14 13 13 12 10 11 17 28 36 39 40 41
6 5 6 5 4 4 4 5 6 6 6 7 8 9 10 11 12 13 13 14 14 14 14 14 15 16 17 17 18 17 16 14 13 13 12 11 10 15 24 31 32 33
7 6 5 4 3 4 4 4 4 5 5 6 8 9 10 11 11 12 13 13 13 13 12 13 13 14 15 16 17 18 18 17 16 15 15 15 14 14 16 20 22 23
7 7 5 4 4 4 3 3 3 4 4 5 6 7 8 9 10 11 11 12 12 12 12 12 12 12 13 14 15 17 19 20 19 19 18 18 18 17 17 17 19 20
7 8 7 6 6 5 3 3 3 3 3 3 4 5 5 6 7 7 9 10 10 11 11 11 11 11 12 12 13 14 17 19 20 20 20 21 21 20 19 19 20 21
6 8 8 8 7 5 4 4 4 3 3 3 3 3 4 5 4 4 5 6 8 9 9 9 10 10 10 11 12 13 14 16 17 18 19 21 21 21 21 22 22 22
6 7 9 9 8 7 6 5 5 4 3 3 3 3 3 4 4 3 3 3 4 6 7 7 8 9 9 10 11 12 13 13 14 15 16 18 19 20 21 22 23 24
5 7 8 8 8 8 7 6 5 5 4 4 3 3 3 4 4 4 4 3 3 3 4 5 6 7 8 8 9 10 11 12 13 15 15 16 16 17 18 20 23 25
4 5 6 8 8 9 8 7 6 6 6 6 6 5 4 5 4 4 4 4 4 3 3 3 4 5 6 7 8 8 9 10 11 13 13 13 14 15 16 18 20 21
3 4 5 7 8 8 9 8 8 7 7 8 8 7 6 6 6 5 4 4 4 4 4 4 3 3 4 4 5 6 7 8 8 9 9 10 12 13 13 16 18 18
4 4 5 6 7 8 9 9 9 9 9 9 9 8 7 7 7 6 5 4 4 4 5 5 4 4 3 3 3 4 4 5 6 7 7 8 10 9 11 15 17 14
Wind_Direction
298 296 285 267 254 248 243 240 242 246 246 244 242 237 233 232 233 238 244 254 260 246 230 224 221 219 220 220 221 222 224 227 231 234 237 240 240 242 240 232 226 227
297 292 286 273 258 250 246 242 242 245 245 245 245 242 238 235 236 240 244 250 259 259 244 232 223 220 221 223 223 224 227 229 231 234 237 238 237 236 235 230 227 226
296 288 285 278 265 253 246 242 241 242 244 247 246 244 244 243 243 243 242 242 247 256 252 238 230 227 226 226 225 225 227 230 231 234 236 238 237 237 237 234 234 232
298 286 282 280 271 260 249 242 240 240 242 247 247 246 248 250 254 253 248 245 245 249 249 240 235 235 234 231 228 228 230 232 234 235 237 238 236 239 242 237 240 240
304 287 280 282 277 267 255 244 241 240 240 244 246 248 252 255 261 263 257 252 248 249 249 245 241 241 241 236 231 231 231 233 235 236 237 236 234 240 243 237 239 242
313 295 280 281 280 273 262 249 244 242 242 244 245 248 251 253 261 270 267 258 251 251 251 250 248 246 246 242 235 233 232 233 234 233 232 231 230 237 241 236 234 235
314 305 286 281 281 277 269 257 250 247 245 245 245 247 248 249 254 263 270 265 256 255 255 255 254 251 249 244 238 234 232 232 234 233 230 226 221 224 230 233 235 232
307 308 297 285 283 281 273 264 255 251 249 249 247 248 248 248 248 250 257 262 259 260 260 260 259 255 251 244 239 237 234 231 232 234 232 226 223 224 224 227 233 229
298 303 302 293 287 280 269 262 257 253 252 251 250 250 249 248 248 246 248 252 256 263 266 266 263 257 253 247 242 242 239 233 232 233 234 230 227 229 229 225 225 226
291 295 299 295 285 274 267 262 259 255 253 253 251 250 251 250 249 248 247 247 249 256 264 267 268 264 260 253 246 245 243 237 233 232 233 232 229 230 231 227 227 238
286 288 289 287 277 271 269 266 265 262 258 255 253 251 250 250 249 249 248 247 246 248 254 259 263 265 267 264 255 249 246 241 236 233 232 232 232 233 232 231 235 248
279 281 280 279 274 273 273 267 268 270 267 262 259 256 253 251 251 251 249 248 245 245 248 253 256 259 261 264 262 256 251 245 239 236 234 234 236 235 234 236 238 246
270 270 268 268 268 271 273 269 270 274 276 275 269 264 262 258 256 255 251 249 247 245 247 250 253 257 259 262 263 261 259 253 247 242 238 236 237 235 237 241 238 241
258 257 256 258 260 268 277 282 283 283 281 281 275 270 270 266 260 255 250 247 245 243 244 247 250 255 258 263 266 266 269 269 265 258 247 240 238 237 241 244 240 240
247 250 254 253 255 267 282 291 291 288 283 282 283 279 274 268 262 258 253 248 243 239 239 241 244 249 254 257 258 260 267 269 270 275 267 249 240 238 239 241 241 241
235 241 249 251 256 267 282 290 290 294 294 290 289 282 275 269 264 258 251 247 244 241 241 242 242 241 243 247 247 247 254 262 265 272 282 267 246 240 237 237 242 246
227 233 244 253 268 276 283 292 296 299 299 295 292 286 279 272 264 257 252 249 249 249 249 249 245 239 235 237 239 239 243 253 261 266 273 271 254 242 237 237 243 249
220 226 240 256 271 270 273 288 295 296 297 295 294 290 283 276 268 261 257 255 256 256 255 253 248 241 236 233 233 233 236 243 251 259 266 265 257 247 240 238 242 248
224 225 233 240 250 254 260 278 283 290 294 294 294 294 291 284 275 267 261 257 256 255 255 257 255 248 242 237 234 232 233 237 244 251 259 262 261 257 251 247 247 249
235 233 233 239 250 257 262 268 278 292 295 295 299 305 306 300 289 277 267 259 256 255 255 257 257 254 249 244 241 238 235 236 239 243 248 253 256 256 253 250 250 251
246 241 239 242 250 252 252 257 272 296 303 301 306 310 315 317 312 302 282 262 255 254 253 254 254 252 249 245 243 241 239 239 240 240 242 245 248 249 249 249 250 250
252 248 243 246 248 248 251 256 265 283 297 305 315 322 328 327 326 331 327 292 265 255 252 251 249 248 247 243 241 241 239 240 241 240 239 240 242 243 245 247 249 248
252 250 247 247 247 246 251 258 265 273 276 283 297 316 332 334 335 343 349 344 320 288 269 258 251 246 244 241 241 240 238 237 238 239 240 241 243 245 246 247 249 250
252 247 245 244 244 245 250 256 263 266 268 275 284 296 311 319 323 335 344 346 347 343 326 301 277 263 253 246 243 240 237 235 237 239 242 245 247 249 251 252 252 253
265 255 248 244 246 249 252 256 260 261 266 275 281 288 297 302 303 307 317 328 338 343 337 333 330 317 293 272 261 252 244 239 237 237 237 239 242 245 251 254 252 252
280 271 259 252 250 252 255 259 261 262 266 273 280 288 291 292 292 293 294 299 308 320 321 320 326 335 332 320 302 283 265 253 246 240 236 238 243 244 248 252 254 259